This is the latest recevied weather packets stored in our database for station/object KD8ZLZ-13. If no packets are shown the sender has not sent any weather packets the latest 10 day(s).
| Time | Temp. | Humidity | Pressure | Rain* | Wind** | Luminosity | Snow |
|---|---|---|---|---|---|---|---|
| 1777985583 | 15.56° C | 69% | 1005.1 hPa | 0 mm | - | 0 W/m² | - |
| 1777984983 | 15° C | 72% | 1005.4 hPa | 0 mm | - | 0 W/m² | - |
| 1777984383 | 15° C | 77% | 1005.1 hPa | 0 mm | - | 0 W/m² | - |
| 1777983783 | 14.44° C | 81% | 1005.1 hPa | 0 mm | - | 0 W/m² | - |
| 1777983183 | 14.44° C | 83% | 1005.1 hPa | 0 mm | - | 0 W/m² | - |
| 1777982583 | 13.89° C | 84% | 1004.7 hPa | 0 mm | - | 0 W/m² | - |
| 1777981983 | 13.89° C | 84% | 1004.4 hPa | 0 mm | - | 0 W/m² | - |
| 1777981383 | 13.89° C | 84% | 1004.4 hPa | 0 mm | - | 0 W/m² | - |
| 1777980783 | 13.89° C | 84% | 1004.4 hPa | 0 mm | - | 0 W/m² | - |
| 1777980183 | 13.89° C | 85% | 1003.7 hPa | 0 mm | - | 0 W/m² | - |
| 1777979583 | 13.89° C | 84% | 1003.7 hPa | 0 mm | - | 0 W/m² | - |
| 1777978982 | 13.89° C | 84% | 1003.7 hPa | 0 mm | - | 0 W/m² | - |
| 1777978382 | 13.89° C | 83% | 1003 hPa | 0 mm | - | 0 W/m² | - |
| 1777977783 | 13.89° C | 83% | 1003 hPa | 0 mm | - | 0 W/m² | - |
| 1777977183 | 13.89° C | 82% | 1003 hPa | 0 mm | - | 0 W/m² | - |
| 1777976583 | 14.44° C | 81% | 1003 hPa | 0 mm | - | 0 W/m² | - |
| 1777975982 | 14.44° C | 82% | 1002.7 hPa | 0 mm | - | 0 W/m² | - |
| 1777975382 | 14.44° C | 81% | 1002.7 hPa | 0 mm | - | 0 W/m² | - |
| 1777974782 | 14.44° C | 80% | 1002.7 hPa | 0 mm | - | 0 W/m² | - |
| 1777974182 | 14.44° C | 79% | 1002.7 hPa | 0 mm | - | 0 W/m² | - |
| 1777973582 | 14.44° C | 80% | 1002.7 hPa | 0 mm | - | 0 W/m² | - |
| 1777972982 | 14.44° C | 80% | 1002.7 hPa | 0 mm | - | 0 W/m² | - |
| 1777972382 | 14.44° C | 81% | 1002.7 hPa | 0 mm | - | 0 W/m² | - |
| 1777971782 | 14.44° C | 82% | 1002.7 hPa | 0 mm | - | 0 W/m² | - |
| 1777971182 | 14.44° C | 82% | 1002.7 hPa | 0 mm | - | 0 W/m² | - |
* Rain latest hour (hover to see other rain measurements)
** Current wind speed in m/s (hover to see current wind gust speed)